User: anonymous   Login
Location: Unspecified
(0.0000°N, 0.0000°E)
Time: 04:36:52
(UTC+01:00)
Language:

Cosmos 1626 Rocket - Orbit

View from above orbital plane
View from above orbital plane
View from above satellite
View from above satellite

Ground track
Ground track

The orbit data is extracted from the following two-line orbital elements,

1 15495U 85009B   15085.08824498  .00000676  00000-0  79019-4 0  9997
2 15495 082.5243 229.8807 0021365 132.9583 227.3428 14.83499986629257
Epoch (UTC): 26 March 2015 02:07:04
Eccentricity: 0.0021365
inclination: 82.5243°
perigee height: 603 km
apogee height: 633 km
right ascension of ascending node: 229.8807°
argument of perigee: 132.9583°
revolutions per day: 14.83499986
mean anomaly at epoch: 227.3428°
orbit number at epoch: 62925

The dashed part of the orbit path shows where the satellite is in the earth's shadow,  

DLR